GFSSGP_850_spd_273.txt.gz
Wind_Speed
2 4 4 4 2 4 3 4 0 7 8 6 13 1 7 7 2 2 2 6 4 2 3 8 16 18 18 17 15 15 15 17 18 18 18 19 20 20 19 17 16 16 15 16 19 17 17 17 18
2 2 4 4 3 0 4 3 2 1 5 9 6 5 7 2 4 2 2 7 5 1 3 3 14 17 17 18 18 15 15 15 15 15 16 18 21 20 19 18 19 19 15 17 18 17 17 18 18
2 4 3 4 3 3 4 4 5 2 5 9 3 7 3 2 4 4 8 8 5 1 3 3 9 16 17 19 19 18 16 15 14 14 14 18 21 21 20 20 22 20 16 15 16 19 17 14 20
3 3 4 4 4 4 4 4 2 3 2 8 2 4 3 5 2 5 8 8 4 1 2 3 3 13 17 18 19 19 18 16 15 14 14 16 21 23 22 23 22 21 19 18 18 17 19 19 19
5 2 3 2 3 4 4 7 8 3 3 4 5 4 5 4 4 4 6 8 5 1 3 4 3 8 16 17 19 20 20 18 17 16 17 15 21 23 22 25 24 22 19 18 18 18 18 22 23
3 2 2 3 4 3 2 7 5 3 4 7 4 1 4 4 1 1 2 6 5 4 5 9 8 6 13 18 21 21 21 20 19 20 20 20 19 23 24 25 25 23 21 18 20 21 20 24 27
5 3 4 3 3 2 2 8 2 3 4 1 6 1 2 1 4 5 4 6 5 4 8 13 17 13 11 17 21 20 20 21 22 21 22 24 23 23 24 26 26 25 22 21 19 24 24 31 29
3 3 3 3 4 3 2 4 1 4 3 7 4 0 1 2 5 8 6 4 5 5 7 9 13 17 19 17 22 24 22 23 24 23 24 25 26 26 26 27 28 26 23 23 21 25 27 33 31
3 3 2 3 5 2 0 3 2 4 9 7 5 5 2 5 8 11 10 8 6 8 10 11 12 13 15 18 22 24 26 26 25 26 26 27 28 28 28 27 27 26 24 22 24 25 27 31 32
3 3 7 2 1 2 1 1 4 4 5 4 8 6 6 10 11 12 9 9 10 10 12 15 17 18 17 17 19 19 29 30 31 28 28 29 30 30 30 29 25 25 25 22 26 27 28 29 35
4 4 3 2 1 2 2 4 2 1 5 6 5 12 12 10 7 9 10 11 10 12 13 15 17 19 21 21 21 22 23 20 32 31 30 32 34 33 34 33 29 27 28 26 29 33 31 32 34
2 1 0 1 1 3 4 4 3 8 8 12 13 10 6 5 7 7 8 10 10 13 16 14 14 16 18 20 22 23 23 23 19 37 36 37 40 40 39 39 36 32 35 34 31 38 34 35 35
2 2 3 2 5 6 7 8 6 16 10 2 4 4 8 12 14 14 14 12 11 15 13 10 10 11 12 15 17 22 26 27 28 21 12 36 38 46 45 44 41 39 38 39 34 41 35 36 36
1 2 6 3 3 4 3 6 1 5 4 6 9 16 17 16 13 14 14 12 10 12 10 11 13 15 15 16 18 19 20 25 32 33 29 15 30 45 47 46 44 44 40 42 39 42 40 38 37
1 1 1 7 6 2 10 1 7 5 7 13 21 18 15 15 15 13 10 10 10 11 13 16 18 20 22 24 25 25 25 26 27 29 25 33 30 19 45 48 49 46 44 45 44 41 43 40 39
4 5 3 2 6 4 7 9 6 5 8 29 25 15 9 9 7 7 7 8 10 13 14 18 21 23 25 28 31 33 35 36 36 31 30 25 27 34 23 48 55 50 46 46 48 45 46 45 43
7 1 2 9 4 4 2 8 5 14 28 29 24 17 7 3 1 3 6 8 9 12 16 17 19 24 29 33 36 39 40 41 45 45 41 38 33 31 34 30 51 52 52 50 51 49 49 50 48
2 2 3 5 3 5 7 18 15 25 20 23 20 8 4 1 0 3 5 6 10 15 19 25 31 36 41 45 47 48 50 51 49 48 48 46 45 42 34 38 32 49 60 53 57 56 50 52 53
4 1 4 5 3 6 4 12 18 20 16 15 7 4 4 3 1 3 8 13 19 24 31 38 44 47 49 49 50 52 53 52 50 48 49 50 51 50 47 39 43 36 42 58 61 57 56 55 56
2 2 5 5 2 3 7 18 13 7 5 2 7 7 6 2 5 11 17 24 32 38 41 43 44 45 46 48 50 49 52 56 57 56 54 52 50 51 50 47 46 49 41 37 62 61 57 53 60
3 4 1 3 6 3 7 7 3 2 2 5 8 6 3 8 16 22 29 34 38 41 43 45 45 45 44 40 43 46 48 49 51 52 51 53 50 48 48 49 46 43 49 50 36 65 63 61 60
3 4 1 4 3 3 5 4 5 3 4 4 6 5 3 14 20 28 32 36 39 42 45 43 42 41 39 37 38 38 41 44 44 46 46 42 41 43 42 44 43 41 42 53 47 47 74 66 65
2 2 1 1 1 3 1 2 7 2 5 8 8 6 8 19 22 30 34 37 40 43 45 41 39 37 36 36 36 37 40 42 43 42 41 42 41 43 44 44 46 47 43 42 46 35 66 74 73
2 2 4 3 2 3 3 3 6 5 6 3 3 6 13 21 28 31 38 41 43 43 41 38 37 36 34 34 33 35 37 40 42 43 44 43 42 44 46 47 43 42 44 42 52 53 56 81 75
4 4 4 5 4 5 1 1 10 7 6 4 7 7 21 25 30 34 40 41 41 43 39 37 36 37 35 34 33 34 36 38 40 41 43 39 39 37 38 38 43 45 43 40 43 41 42 63 77
3 4 5 5 2 5 4 6 6 5 4 8 5 12 23 27 31 35 37 33 40 38 37 36 35 36 33 31 32 33 34 36 38 39 39 39 40 41 42 41 37 37 40 38 34 36 43 53 70
2 3 3 6 1 3 3 7 11 6 7 7 4 17 26 31 32 36 35 37 37 36 35 34 33 33 32 32 31 31 31 32 35 37 37 37 36 35 35 34 40 36 36 37 30 29 36 61 58
4 4 3 3 1 5 5 6 6 5 4 6 5 18 28 28 32 33 31 35 34 33 33 32 31 32 32 31 30 30 29 28 30 31 34 32 34 34 34 34 32 32 33 35 36 30 42 49 50
2 1 4 3 3 4 3 7 7 7 5 7 5 19 22 24 28 30 33 33 33 33 32 32 31 32 32 30 29 28 28 27 25 23 23 24 27 29 30 31 33 31 33 34 35 31 36 42 46
3 5 6 4 5 2 3 8 2 7 5 6 8 22 21 24 26 29 32 34 34 33 33 32 32 31 31 30 29 27 26 23 22 23 22 22 25 27 28 31 34 31 32 32 36 32 38 42 44

GFSSGP_850_spd_276.txt.gz
Wind_Speed
3 3 3 3 3 4 2 4 2 5 1 4 1 4 6 4 2 2 1 6 5 1 1 4 11 13 16 16 15 18 20 21 21 21 20 20 19 18 18 17 17 18 19 19 18 19 17 19 20
3 2 4 3 4 2 4 3 3 3 3 2 1 2 5 2 3 1 3 6 5 2 2 1 10 13 15 16 16 15 16 18 20 20 20 19 19 19 18 17 17 17 16 17 20 21 20 20 24
3 5 3 3 3 4 4 4 4 4 5 4 2 6 2 1 3 4 7 8 5 1 1 0 5 12 15 16 17 18 17 16 17 18 18 19 19 19 19 17 16 14 14 15 20 23 21 21 23
5 4 4 4 4 5 5 0 2 6 1 7 2 4 3 4 3 6 6 8 6 1 0 1 4 6 14 15 18 19 19 17 17 16 16 17 17 19 18 18 18 19 16 15 16 16 20 19 22
5 3 2 2 4 4 4 2 3 2 1 4 2 0 2 2 2 5 6 6 4 2 1 3 3 3 8 14 17 19 20 20 18 17 16 16 16 22 22 20 22 21 19 18 14 15 17 15 20
3 3 2 3 4 4 2 5 3 0 3 1 4 1 2 1 1 3 7 7 4 2 4 8 12 6 10 14 17 19 20 22 21 19 18 19 18 22 25 24 24 23 21 19 17 16 16 17 18
5 3 3 2 3 2 1 5 2 3 2 2 4 0 2 3 2 3 6 8 6 4 6 9 13 18 18 17 18 20 22 24 24 23 22 23 22 23 24 25 27 26 24 21 18 17 18 17 22
4 3 1 3 3 3 3 3 1 4 2 4 2 1 1 2 3 4 6 7 7 8 8 9 10 15 19 20 19 21 24 26 26 25 25 25 25 24 24 25 27 27 27 25 24 22 21 19 26
4 3 1 3 4 2 4 5 2 5 6 6 4 3 3 3 6 9 9 8 8 10 11 12 13 14 15 14 19 23 24 26 28 29 29 28 28 28 27 27 28 29 29 27 25 25 22 22 29
4 3 6 1 1 1 2 3 6 6 7 5 8 8 6 8 10 10 10 11 10 9 11 14 17 18 19 19 19 20 19 15 23 31 32 33 32 31 30 30 30 30 29 28 27 25 25 25 33
3 5 3 1 1 1 1 3 3 1 4 7 6 8 12 9 4 3 5 8 9 8 12 15 14 15 16 18 21 23 22 20 23 15 27 32 34 34 33 33 33 31 29 27 27 26 28 30 38
3 2 2 0 1 1 3 3 4 10 9 8 13 11 8 4 4 6 7 8 9 9 14 12 10 10 12 13 14 17 20 23 24 23 23 16 24 35 34 36 36 36 33 30 30 28 33 33 37
2 1 1 2 5 6 6 8 7 16 22 15 4 3 8 12 11 10 11 11 8 8 10 9 11 12 13 14 17 18 19 20 19 21 23 27 24 13 32 38 38 38 36 33 33 33 34 35 37
2 0 4 2 2 3 3 4 1 6 5 10 7 10 20 21 17 14 13 9 8 8 8 9 12 16 17 18 18 20 22 24 24 25 26 26 26 28 16 21 41 41 41 39 37 39 38 39 39
1 1 1 4 6 3 8 4 7 6 5 6 13 22 20 14 14 15 13 6 7 8 10 12 15 18 21 24 25 26 26 27 29 29 28 28 32 29 35 33 18 46 44 43 44 43 43 39 43
3 4 2 2 7 2 4 8 2 7 3 21 19 13 10 6 9 5 4 5 9 11 14 16 18 21 24 28 31 34 35 35 36 36 36 35 34 37 32 39 39 21 48 47 48 50 47 44 46
6 1 2 7 4 4 3 8 4 7 24 25 14 11 2 1 4 4 5 7 9 9 13 18 23 28 33 37 39 42 44 45 46 45 45 44 43 42 42 37 40 35 30 48 54 54 50 49 47
2 1 2 5 4 5 6 16 14 20 20 21 15 6 1 5 5 2 3 6 10 13 19 26 32 37 41 45 48 50 51 52 51 51 51 51 49 46 43 44 41 36 41 36 47 56 50 50 50
6 3 2 4 3 5 5 10 20 15 14 10 5 3 4 7 4 3 6 11 17 22 28 36 42 44 45 47 49 50 52 53 54 53 53 51 49 47 44 46 48 42 39 47 37 45 56 53 51
4 2 4 5 1 1 7 20 14 6 5 4 7 8 9 4 3 8 14 19 26 33 38 41 44 47 48 47 47 45 45 47 47 47 46 45 44 45 49 49 49 47 43 45 51 33 40 53 56
3 3 2 1 7 3 7 7 5 2 1 3 9 9 6 2 11 15 22 28 34 38 40 43 46 45 41 39 39 40 40 41 43 43 42 40 39 38 40 43 46 48 46 46 49 58 36 47 58
1 4 3 3 4 3 4 4 5 4 5 4 8 10 6 5 13 19 27 32 36 38 39 42 42 39 36 34 35 37 41 44 41 41 42 42 40 38 36 37 39 41 44 44 47 53 59 28 59
2 2 2 1 1 3 2 3 7 2 7 8 10 14 8 8 16 23 29 33 37 39 41 43 39 36 35 34 34 36 38 41 42 42 42 41 42 40 38 36 35 36 36 38 39 46 57 63 28
4 4 5 4 2 3 2 3 6 5 6 3 5 15 7 14 20 25 30 35 38 40 41 40 37 36 35 34 33 34 35 37 40 41 42 42 41 41 39 38 39 44 45 46 43 43 46 60 60
2 5 3 5 4 5 3 1 11 6 6 4 7 11 6 16 22 27 32 36 39 41 40 37 36 37 34 33 31 30 32 35 38 40 41 42 41 40 40 35 36 39 43 47 43 41 45 44 56
2 5 5 5 2 4 3 6 6 5 2 8 8 9 10 20 24 27 31 35 37 38 37 36 36 36 34 32 30 29 29 32 35 38 39 40 41 41 37 35 33 34 33 36 38 40 44 44 41
3 1 2 7 2 3 3 7 10 6 7 6 10 7 15 22 24 26 30 33 37 37 36 35 34 33 33 30 29 29 29 30 33 35 35 37 37 39 38 35 36 36 35 35 36 44 44 37 38
2 5 3 3 1 4 5 6 6 4 3 6 8 8 17 25 23 25 29 32 34 34 34 34 31 32 31 29 28 29 30 30 32 33 36 36 35 33 33 31 29 28 28 36 34 35 35 35 33
2 1 4 3 3 4 2 6 8 7 5 7 8 12 17 22 23 24 27 29 32 32 33 33 31 31 30 29 29 29 30 29 30 32 33 32 33 29 27 28 30 29 30 28 32 34 37 37 30
2 5 5 4 5 1 3 8 3 7 7 8 12 16 23 22 20 22 25 28 31 32 33 31 31 30 29 29 28 28 29 28 29 28 28 27 31 29 27 25 26 27 30 31 33 33 34 39 29

GFSSGP_850_spd_279.txt.gz
Wind_Speed
4 3 4 4 1 2 2 4 1 2 1 2 0 1 4 3 1 2 1 6 6 4 2 6 11 13 15 13 14 16 17 18 18 19 18 17 17 16 16 16 17 18 19 21 20 18 18 17 15
5 5 6 3 3 2 3 2 4 2 2 3 1 2 2 2 4 3 4 6 5 1 3 1 8 11 14 15 15 14 17 18 19 20 20 20 21 20 20 20 19 19 19 20 20 19 17 16 17
5 7 4 3 3 4 4 5 4 1 3 2 2 4 3 2 4 2 6 7 5 3 4 4 0 7 12 14 15 15 15 15 17 19 20 21 22 22 22 21 20 19 19 18 16 19 18 18 20
7 4 3 2 3 4 3 2 2 2 1 5 1 3 4 5 2 5 6 7 4 4 4 4 3 1 8 12 14 16 17 17 16 16 18 20 20 21 21 21 19 19 18 18 20 21 21 19 22
8 2 2 1 3 3 3 0 2 1 1 3 4 1 4 4 4 6 6 5 4 2 2 4 4 5 8 9 12 14 17 18 19 18 17 18 19 19 19 19 21 21 20 18 16 19 24 21 23
3 2 2 3 3 4 2 1 1 1 1 2 2 1 2 4 1 3 6 5 3 1 3 5 9 9 10 14 13 14 16 18 20 21 20 19 19 19 23 23 23 23 23 21 20 18 15 17 21
5 3 3 3 3 3 2 3 2 2 2 1 1 1 1 3 1 3 5 6 6 5 5 6 8 11 14 16 16 16 19 19 21 22 24 22 22 21 23 25 25 24 25 24 23 21 16 13 17
5 3 3 3 3 4 3 2 2 2 1 1 2 3 2 6 4 3 3 5 6 6 7 8 8 8 9 12 18 19 19 22 23 24 26 25 25 26 24 27 27 26 27 25 23 21 17 16 15
5 3 2 4 5 2 2 2 1 3 4 3 3 4 5 6 6 7 8 7 8 10 11 12 13 13 15 15 15 15 16 20 20 24 28 27 26 28 28 28 28 29 29 28 26 24 20 18 18
4 3 7 2 3 3 1 0 2 2 4 3 5 6 7 7 10 10 8 6 6 7 8 9 12 13 14 15 17 17 18 17 17 19 22 19 30 34 33 32 31 31 31 31 29 27 25 22 21
4 5 4 3 4 3 2 3 3 3 5 9 3 4 7 10 6 4 4 4 5 5 7 10 8 8 9 9 9 11 12 13 14 18 19 21 22 22 38 32 34 33 33 32 31 30 28 27 25
4 3 4 3 3 2 2 2 4 9 6 3 6 11 6 3 3 4 6 6 7 6 7 5 3 5 7 9 11 12 13 14 14 14 15 15 14 17 21 34 32 37 37 36 34 33 30 29 28
4 3 3 2 4 6 7 8 7 14 16 15 13 5 4 6 10 10 9 8 8 6 7 4 5 6 7 10 12 15 17 18 18 18 19 21 19 18 23 15 24 35 40 38 36 34 33 30 31
5 3 1 2 1 2 3 4 1 2 5 6 10 7 11 17 19 17 14 11 9 8 8 8 10 12 14 15 18 19 20 23 25 24 24 23 23 24 23 24 25 15 30 41 40 38 35 35 33
4 3 1 3 3 1 4 5 7 13 6 5 4 14 20 18 13 11 12 11 9 10 12 13 15 17 20 22 24 26 29 31 32 32 32 31 30 28 29 29 27 31 23 22 40 40 39 39 38
3 4 1 0 5 0 2 7 2 9 8 7 14 14 10 5 5 4 5 8 8 10 13 16 19 22 26 29 32 34 36 38 40 41 41 39 38 36 36 36 37 33 35 33 20 46 46 43 45
4 2 3 3 3 3 2 6 4 9 7 21 23 11 5 7 9 8 6 5 7 11 14 17 22 27 32 37 40 42 43 44 45 46 46 45 45 44 43 43 44 42 39 41 41 22 46 47 47
5 3 3 4 2 2 5 14 12 23 16 26 18 8 9 11 11 8 5 5 7 11 16 23 29 36 40 43 46 47 49 48 46 45 45 45 44 44 44 46 46 45 41 39 39 46 32 45 53
6 3 2 2 1 4 4 9 19 17 14 20 16 12 14 14 9 5 4 7 11 16 23 30 36 41 46 49 50 49 46 41 39 36 36 36 37 38 38 40 43 43 44 43 41 36 52 40 51
3 2 3 3 0 1 5 20 10 4 5 8 12 13 14 11 8 6 7 11 16 22 29 34 39 43 46 46 43 40 39 38 38 37 34 32 32 32 31 32 36 39 46 47 46 43 42 55 39
2 2 1 2 5 1 6 7 5 2 1 3 7 10 11 9 5 6 11 16 22 29 34 37 40 43 42 39 38 37 38 39 40 38 36 32 30 30 31 32 33 36 38 46 45 44 47 46 55
2 3 3 3 3 2 4 4 5 3 5 3 8 13 13 8 5 9 16 21 26 30 33 36 39 40 39 35 35 35 37 39 39 40 40 36 32 31 31 31 32 35 38 41 43 40 46 50 49
3 3 3 1 2 2 3 3 7 3 5 8 11 18 16 12 8 12 18 23 26 30 34 37 40 38 35 33 32 33 35 36 36 35 36 36 36 33 31 32 32 34 37 38 38 39 40 48 51
6 4 4 3 0 3 1 3 6 4 5 3 4 21 18 13 10 14 20 24 27 30 34 38 39 37 34 32 31 32 33 32 34 32 34 35 36 37 36 32 33 33 36 41 40 35 39 42 48
2 4 3 5 4 4 2 1 10 5 5 4 5 16 19 11 11 18 21 23 27 31 34 38 37 37 34 33 32 30 29 29 32 33 35 38 40 39 38 36 34 34 34 38 43 47 43 36 39
3 5 5 6 2 4 2 6 5 5 1 6 10 10 14 7 13 18 19 22 26 30 34 36 36 36 33 32 31 29 28 30 31 33 35 38 40 40 38 37 35 34 35 34 35 41 49 46 40
4 2 4 7 1 3 2 7 10 4 8 10 10 13 14 8 16 18 20 22 25 29 32 34 34 33 31 31 31 30 29 30 32 33 35 38 39 40 39 37 34 34 35 33 34 33 34 38 43
2 5 3 2 1 4 4 6 5 4 4 4 8 20 19 12 18 21 20 21 23 27 30 31 32 32 31 31 31 30 30 30 31 32 34 35 37 37 36 38 37 33 34 33 36 42 43 40 42
2 0 4 3 3 5 1 6 7 8 7 7 8 17 21 18 20 22 19 19 21 24 28 30 31 31 32 32 33 31 30 30 30 31 32 33 35 35 33 35 36 33 31 28 27 32 32 32 38
1 4 5 4 5 1 2 7 3 7 6 7 14 14 18 20 23 19 16 17 19 23 26 28 29 30 31 32 33 31 29 29 29 29 30 30 32 32 31 31 32 32 29 29 31 31 32 36 34

GFSSGP_850_spd_282.txt.gz
Wind_Speed
5 3 5 3 5 5 11 8 1 5 4 1 0 3 2 6 4 3 1 6 6 3 2 6 8 9 10 10 11 12 14 14 15 15 14 15 15 14 14 14 14 16 17 15 16 17 17 16 15
6 5 5 2 6 9 8 7 9 4 2 3 0 1 0 5 5 3 3 6 4 4 4 5 8 9 11 12 10 11 13 14 16 17 18 18 18 17 17 17 17 18 19 20 21 18 18 18 18
7 9 5 3 7 10 6 9 6 6 2 4 3 3 2 3 4 3 5 7 6 4 6 6 6 6 8 11 13 13 13 15 16 18 19 19 20 20 20 20 20 21 21 21 22 23 22 21 20
7 5 2 6 9 9 6 4 4 4 3 3 3 6 5 3 2 3 4 5 3 4 5 3 5 5 8 9 11 13 14 15 15 16 17 18 20 20 21 21 22 22 22 21 21 20 23 20 18
10 4 6 8 11 5 7 2 1 4 3 2 1 5 5 3 4 4 5 4 2 2 5 5 3 4 6 9 11 12 13 15 17 18 18 18 19 20 20 20 21 22 22 22 20 20 22 21 19
6 3 6 10 10 7 4 3 4 5 3 3 3 5 5 5 3 2 4 4 4 3 1 2 5 8 9 9 11 14 15 15 16 18 20 21 20 20 20 20 20 22 23 24 22 22 23 23 22
8 6 9 8 4 8 5 2 6 4 5 3 1 3 5 6 5 2 1 3 3 3 4 4 4 7 11 12 14 14 17 19 19 19 21 23 23 21 21 20 24 24 24 26 25 23 23 24 21
7 4 5 6 7 5 3 4 3 4 4 3 4 3 4 7 6 2 2 3 5 5 5 6 7 6 7 8 8 9 11 16 20 22 25 24 24 23 23 23 24 28 27 27 29 26 25 22 18
8 6 7 5 6 2 3 5 4 3 3 3 4 3 4 8 7 5 4 6 7 8 8 9 10 10 10 10 11 12 12 13 12 16 18 24 24 25 26 25 26 28 30 29 31 30 28 24 20
9 8 9 2 2 1 2 3 3 4 6 6 6 7 8 7 7 8 8 4 6 5 6 6 7 7 8 8 8 9 11 12 13 14 17 16 16 19 26 26 28 29 30 31 32 32 29 26 23
4 7 5 4 3 2 3 4 3 4 8 9 7 6 6 8 9 6 5 4 2 3 4 6 4 4 4 5 7 9 10 11 12 13 14 14 14 16 21 20 24 33 32 31 32 33 32 30 25
5 5 3 2 3 2 4 3 5 8 5 3 5 5 7 6 5 5 4 5 6 5 5 5 4 3 5 7 9 12 14 15 16 17 17 17 17 15 16 16 17 32 37 31 34 38 37 35 30
9 4 5 3 3 4 5 10 8 13 11 11 13 9 6 9 8 9 10 10 9 9 8 7 8 7 8 10 12 15 18 20 22 23 22 22 22 21 20 19 19 20 33 34 39 39 41 40 34
6 6 3 3 3 2 4 5 2 3 4 8 13 9 9 11 14 16 16 16 12 12 12 10 11 12 13 15 18 21 23 26 28 30 31 31 30 29 29 26 24 21 23 26 40 42 46 43 40
5 6 3 4 3 2 2 8 10 10 5 7 9 5 11 16 18 16 13 16 14 14 13 12 13 16 18 21 24 26 30 34 37 39 40 40 38 37 36 35 33 30 27 29 28 41 37 48 45
4 3 5 4 2 2 3 6 3 6 11 12 9 4 7 10 9 8 8 12 12 12 12 13 16 18 21 26 30 34 37 40 42 45 45 45 45 43 41 41 41 38 37 34 32 34 26 36 53
5 3 6 4 1 1 6 6 2 9 10 13 16 11 6 6 8 9 10 10 10 10 11 14 17 21 25 30 36 39 42 43 41 42 43 43 42 41 41 42 43 43 43 43 39 37 33 33 33
6 5 4 4 4 4 9 19 13 12 15 18 18 12 9 11 11 12 10 9 8 9 12 17 21 26 32 37 40 43 43 43 41 37 34 33 34 35 37 38 40 40 42 45 45 42 40 39 36
2 2 2 2 2 4 8 15 16 16 20 21 23 15 15 16 14 13 10 8 8 11 15 20 25 30 36 39 42 43 42 40 36 31 29 28 29 29 30 31 31 33 37 38 36 38 43 45 45
3 2 3 2 2 4 7 21 15 5 7 14 19 18 19 19 16 14 10 8 10 14 19 24 29 33 36 38 39 38 37 36 35 33 31 29 27 27 29 29 29 29 30 31 30 30 32 45 45
2 3 2 1 5 1 9 8 4 3 3 5 11 15 17 19 16 12 11 10 13 18 23 28 31 32 35 37 38 35 34 32 29 27 28 28 28 26 26 28 29 29 30 30 31 31 33 39 41
3 3 5 2 4 3 4 6 4 3 5 7 11 15 18 17 14 12 9 11 16 21 25 29 30 32 35 35 34 33 32 30 29 31 30 31 30 27 25 24 27 30 32 35 35 30 34 34 40
2 3 4 2 1 3 3 3 4 2 7 12 12 16 17 16 12 10 10 14 19 24 27 28 30 32 33 33 31 31 31 29 29 28 29 27 27 28 27 27 27 29 32 34 32 34 32 36 39
12 4 3 2 0 3 4 3 5 4 2 4 9 17 18 16 14 11 13 17 21 24 25 28 30 32 33 33 30 28 29 28 28 27 29 30 29 30 30 30 29 28 28 32 34 34 34 38 40
2 3 1 2 2 3 3 3 10 4 3 2 4 9 17 16 14 12 13 17 20 21 24 27 29 31 31 31 29 28 29 27 28 30 32 32 34 34 35 33 33 32 31 29 29 34 35 41 37
7 2 3 4 3 1 2 6 3 1 1 5 7 5 12 16 16 12 13 16 17 20 23 26 28 30 29 29 28 28 28 28 30 31 31 34 35 37 36 36 35 35 34 33 30 32 37 36 47
5 6 2 6 1 1 2 6 12 7 12 13 11 9 13 16 15 13 14 16 17 20 23 25 27 28 28 28 29 29 28 28 30 30 30 32 33 34 35 34 36 37 37 37 34 34 36 38 40
2 5 3 1 4 5 3 5 4 6 9 8 9 16 15 17 20 16 15 16 18 20 22 23 25 27 29 29 30 30 30 28 28 29 30 30 32 32 34 35 35 36 38 38 36 34 36 37 32
5 4 0 0 1 3 2 4 5 7 7 7 7 10 12 16 21 20 18 18 17 18 19 21 24 26 28 29 30 31 30 29 28 28 28 28 29 31 32 34 35 35 33 38 36 34 35 36 44
2 4 7 3 6 1 1 7 3 6 5 5 8 10 10 11 17 20 21 17 15 16 16 19 22 25 26 27 29 30 30 29 29 27 27 27 29 31 31 32 34 33 30 36 33 32 31 31 37

GFSSGP_850_spd_285.txt.gz
Wind_Speed
6 3 4 5 6 6 12 14 7 6 7 2 1 5 6 13 8 3 4 9 7 4 2 3 8 6 5 5 7 7 10 10 10 10 10 10 11 10 10 9 10 11 13 13 13 14 15 14 13
5 4 5 8 7 11 10 11 12 11 5 5 3 2 4 5 9 9 5 8 5 6 5 4 5 6 5 6 6 7 10 11 12 13 13 13 13 13 13 14 14 14 15 16 16 14 14 16 14
7 7 9 4 11 12 7 5 8 6 2 7 4 1 2 4 6 5 5 7 6 8 6 4 7 6 5 6 8 9 10 11 13 14 15 16 17 18 18 17 18 17 17 19 20 20 19 18 17
6 6 7 9 15 9 8 5 7 9 5 3 3 5 6 3 3 4 4 4 5 7 6 4 5 7 7 7 8 9 10 12 13 14 15 16 17 18 18 19 20 20 20 21 22 22 22 22 23
8 9 9 11 14 10 5 3 5 10 7 6 5 7 5 5 6 7 7 5 4 2 2 2 1 2 5 7 9 10 11 12 14 15 16 17 17 17 17 17 19 19 20 22 22 22 23 23 24
11 12 10 11 14 8 8 9 8 11 8 5 5 5 6 6 6 5 7 7 6 3 2 1 3 6 10 7 8 10 12 14 14 15 17 19 19 19 18 18 18 19 20 22 23 23 23 23 23
15 9 13 14 8 7 11 7 11 12 10 7 1 6 6 7 6 5 5 5 2 1 0 0 2 4 7 8 8 11 14 15 16 19 19 20 21 22 22 20 19 20 23 22 23 24 24 24 25
19 9 15 10 11 11 7 6 3 7 8 3 3 4 8 10 6 4 4 3 2 3 4 5 6 6 7 9 9 9 9 10 11 16 19 21 24 24 22 24 21 22 23 24 24 25 27 25 25
10 8 11 14 7 5 6 9 6 3 5 6 5 2 7 9 6 5 3 2 1 4 7 9 10 10 10 10 10 11 11 12 13 13 14 14 17 16 22 26 26 26 24 24 27 27 30 28 26
13 11 12 3 4 2 4 7 6 6 11 11 9 6 6 5 5 6 7 7 4 3 1 6 8 7 6 6 6 7 8 10 11 13 14 14 14 14 16 21 23 25 28 27 27 29 30 33 31
13 15 13 4 5 3 5 6 6 8 10 13 12 11 8 6 6 7 7 6 6 4 2 3 6 6 5 5 5 6 7 9 12 14 16 16 17 16 15 17 20 23 27 34 30 33 31 36 37
10 16 8 2 4 3 6 5 7 13 14 1 4 7 8 7 8 7 6 6 5 5 4 7 7 7 6 5 6 8 9 11 13 15 18 19 21 20 20 19 19 20 22 28 31 34 37 36 40
16 7 10 10 5 5 7 12 11 16 14 10 9 9 9 9 9 8 7 7 7 7 7 8 9 9 9 9 11 11 14 18 21 23 25 27 28 30 29 27 26 23 22 27 30 35 37 38 44
3 18 9 7 9 6 6 12 3 7 15 17 17 15 12 12 11 10 10 10 10 9 9 11 11 13 13 14 16 18 21 25 27 30 33 35 37 36 35 36 35 32 28 25 26 31 33 42 41
1 5 12 12 8 4 4 12 18 18 8 11 12 14 13 12 12 12 12 12 12 10 12 13 14 15 16 17 20 23 26 29 33 37 40 40 39 38 38 38 39 38 37 33 31 31 31 41 42
5 5 7 8 9 5 5 10 7 10 13 13 14 14 9 10 11 9 8 10 10 10 11 14 14 15 17 20 24 27 31 34 37 38 39 38 37 36 36 38 39 37 38 38 38 37 36 35 31
8 6 13 6 9 3 11 8 7 8 12 15 18 17 8 7 8 9 9 10 9 9 10 11 14 17 20 24 28 31 34 37 38 39 38 36 35 34 33 33 33 33 34 37 37 41 41 41 37
6 8 6 9 7 9 10 19 11 11 14 18 20 21 13 11 12 12 11 10 10 10 11 13 15 18 22 26 30 33 34 35 36 37 36 34 30 29 29 28 28 30 36 37 35 34 40 43 44
6 6 7 3 4 3 14 19 16 13 19 22 24 22 17 15 15 14 12 11 11 10 11 14 16 20 25 29 32 34 35 37 37 36 33 32 30 28 28 29 28 27 29 31 33 32 33 36 41
9 10 10 2 4 3 9 18 19 17 19 23 25 26 21 19 19 17 13 10 10 10 12 14 18 22 26 30 32 34 36 36 35 32 30 29 27 25 25 26 27 26 27 28 27 27 31 31 30
9 10 5 3 4 8 10 10 7 5 7 9 14 21 22 24 22 19 15 10 9 9 13 16 20 25 29 30 32 33 32 31 27 23 23 24 26 26 25 25 26 28 28 29 26 25 27 30 28
9 2 2 2 3 4 2 5 7 9 8 8 9 16 21 23 20 17 15 11 8 12 15 19 23 27 28 29 32 31 31 29 25 26 26 26 26 25 24 22 22 25 27 29 30 28 27 27 30
2 4 2 1 3 4 6 4 4 4 10 11 12 16 19 21 19 17 14 11 11 14 16 21 24 25 28 30 31 29 29 27 27 27 28 27 26 24 25 25 25 26 26 29 30 28 30 32 31
10 5 3 1 2 4 4 5 8 6 6 10 14 18 19 20 18 15 12 12 11 14 18 22 23 25 28 29 28 27 28 28 29 30 30 30 28 27 27 28 29 30 30 29 29 30 32 33 35
5 4 1 3 3 3 3 4 10 3 4 7 12 16 19 19 18 15 12 9 11 14 18 20 23 26 28 28 27 27 28 28 29 29 31 31 32 31 31 29 29 31 32 30 30 32 33 33 35
10 3 3 5 4 2 2 6 4 2 4 9 7 7 13 17 17 16 12 13 12 16 18 19 23 26 27 27 28 27 26 27 29 30 29 30 31 32 31 31 31 31 31 30 30 34 37 35 35
6 7 3 4 2 2 4 5 10 10 7 8 9 11 11 14 17 16 14 14 14 15 17 19 22 24 26 27 27 26 26 28 29 30 31 31 30 30 30 30 30 30 30 32 33 35 37 37 37
3 3 3 2 5 6 4 4 7 6 11 12 12 13 12 12 15 15 16 16 15 15 15 18 21 23 25 25 25 26 28 28 28 29 29 29 29 29 29 29 29 30 30 31 30 37 41 42 37
4 3 4 2 2 4 2 4 4 6 7 9 10 12 11 11 11 15 15 16 15 15 15 17 19 22 23 23 24 25 27 28 28 28 28 27 27 27 29 29 30 31 31 30 30 34 35 39 38
11 5 8 4 6 2 2 5 2 1 6 9 10 9 8 9 8 11 18 16 16 14 14 15 18 19 20 21 23 25 27 29 30 29 28 26 26 25 26 27 29 30 32 32 30 32 31 37 37

GFSSGP_850_spd_288.txt.gz
Wind_Speed
6 4 1 6 4 4 9 11 10 5 3 5 4 4 12 15 4 4 7 9 7 7 0 2 7 6 5 3 2 3 5 4 4 4 4 5 5 6 5 5 6 6 6 8 8 9 10 12 14
9 4 6 9 5 7 8 8 8 3 14 11 4 5 4 5 14 11 3 7 10 7 5 5 6 5 4 3 3 3 4 6 6 6 7 8 8 8 9 8 9 10 10 10 11 10 10 11 12
9 8 10 4 6 10 9 7 8 3 13 5 5 2 5 6 7 6 4 4 10 8 6 4 5 6 5 4 4 4 5 6 7 8 9 11 12 12 13 12 12 12 13 13 13 14 16 15 15
7 6 8 5 12 12 4 3 11 6 6 3 6 10 7 5 5 7 4 6 7 7 6 5 5 6 4 3 3 5 6 7 8 9 10 11 12 13 14 14 15 15 15 16 17 16 17 17 19
9 9 6 8 13 15 3 8 7 5 11 11 5 9 8 8 13 9 7 7 6 6 7 5 4 3 2 4 5 6 7 7 8 9 11 12 13 13 14 14 14 15 15 17 19 19 19 20 21
7 8 6 8 15 16 8 9 7 8 7 10 2 10 7 9 9 13 10 10 6 6 4 2 3 3 3 4 5 5 6 8 10 10 11 12 14 16 16 16 16 16 15 17 17 19 20 21 22
12 7 9 13 13 5 3 10 3 8 11 5 4 3 10 13 11 11 9 6 5 5 4 2 0 2 4 5 5 6 8 10 10 11 12 15 17 17 16 20 21 19 18 19 19 18 20 22 23
14 8 14 11 11 9 5 10 6 11 2 5 6 1 8 18 12 11 9 3 2 2 2 3 4 5 7 6 7 7 7 8 8 9 9 10 13 15 17 20 20 21 22 21 21 20 19 21 23
16 7 10 12 13 4 6 4 7 4 2 2 4 3 17 16 12 9 9 6 2 5 6 7 8 9 9 10 10 10 10 9 8 9 10 11 13 13 14 16 18 22 24 25 23 24 23 22 24
7 8 10 6 7 5 7 2 7 5 9 7 7 7 10 10 11 11 8 7 7 6 7 7 5 5 5 6 4 4 5 6 6 7 8 9 10 12 12 13 16 19 21 23 25 29 26 27 28
11 12 10 5 5 7 7 2 4 2 6 16 19 19 12 10 10 11 10 10 7 11 6 5 3 3 3 2 2 2 3 4 7 10 12 14 15 16 16 16 16 17 19 23 24 31 32 34 33
13 15 23 3 5 3 4 6 4 10 10 3 3 14 15 12 10 9 10 10 14 9 8 6 5 5 4 4 4 5 6 7 11 13 17 20 22 24 25 25 23 23 22 22 24 24 29 35 34
17 11 7 8 3 5 10 8 8 16 14 14 11 12 12 11 10 11 12 14 11 11 10 8 7 7 7 7 8 9 11 15 18 21 24 27 31 33 33 34 33 30 28 27 27 25 28 32 37
5 10 14 5 4 8 4 7 11 9 18 20 15 16 14 13 15 13 14 12 10 9 13 12 10 10 10 11 12 14 16 19 23 26 29 31 34 36 37 36 35 35 34 31 31 31 29 31 33
4 4 5 5 8 3 2 8 15 25 9 14 18 17 17 16 16 16 14 11 12 13 14 15 14 13 12 13 16 17 19 22 26 29 32 34 35 35 36 36 35 34 34 36 37 34 34 34 32
4 3 3 4 12 6 5 8 3 19 19 14 15 15 17 17 16 15 14 17 17 17 18 17 14 14 15 16 17 19 22 26 29 31 33 32 32 32 33 35 36 35 34 34 32 38 37 37 37
5 4 8 3 6 5 9 7 5 8 10 13 16 17 17 13 15 13 14 14 16 16 15 13 13 13 15 16 19 23 26 29 32 33 34 35 35 34 32 32 33 32 32 32 33 34 37 39 39
5 5 5 8 7 4 6 17 11 11 13 16 18 21 20 16 12 14 14 15 17 18 14 12 11 13 14 18 22 26 29 31 32 34 35 35 35 34 33 31 30 28 29 30 32 35 33 34 36
4 4 5 6 3 3 10 15 13 14 21 18 21 23 26 17 14 16 16 17 15 13 11 11 11 13 16 21 26 29 31 33 34 34 34 32 31 30 30 29 29 28 28 28 28 29 30 33 30
2 4 7 2 6 2 6 13 15 12 13 25 26 25 23 18 20 19 18 16 14 11 11 11 11 14 18 23 25 29 32 34 35 33 31 27 28 29 29 28 27 27 28 27 27 27 30 30 26
4 7 5 2 4 7 6 8 6 3 6 6 12 23 28 19 25 22 20 17 12 12 14 10 12 16 20 24 26 28 31 32 33 32 30 28 28 28 28 29 27 27 27 28 28 27 26 29 30
4 1 3 3 1 3 4 5 5 6 7 6 10 15 19 24 26 23 21 16 15 17 13 10 13 16 19 23 26 29 32 34 32 32 32 31 30 30 28 27 26 25 26 27 28 28 27 28 31
2 2 2 1 3 3 4 1 7 4 7 8 9 15 20 24 26 23 21 18 17 17 12 11 12 16 19 22 26 28 30 32 33 33 34 33 32 30 29 27 25 27 26 27 27 27 28 27 31
7 4 2 1 1 1 9 6 4 5 5 7 10 16 19 22 23 22 20 20 20 16 12 10 13 16 19 22 25 27 30 31 33 33 34 34 34 32 29 26 25 25 28 29 30 29 29 29 29
4 3 1 2 1 5 3 0 8 3 0 6 10 21 22 23 23 23 23 23 16 15 11 11 13 16 19 21 25 27 28 28 30 32 35 35 35 33 30 27 26 27 27 28 29 30 29 30 32
7 4 3 7 4 3 3 6 6 4 8 13 20 23 22 23 23 23 21 17 19 16 11 11 14 16 19 21 24 25 25 26 28 30 32 33 32 33 30 28 27 27 27 27 28 30 31 31 34
5 4 1 4 1 3 5 7 5 6 4 6 8 11 19 24 24 23 22 24 21 16 12 12 13 16 18 20 22 23 23 25 28 30 31 32 31 31 29 29 28 28 27 26 26 28 31 32 32
1 3 3 2 3 4 4 4 6 8 9 9 9 15 18 19 21 21 22 21 19 16 12 13 14 15 17 19 20 21 22 24 27 30 31 29 28 27 27 26 26 27 27 27 27 28 30 32 32
3 2 2 1 2 4 1 6 4 8 11 13 11 20 19 19 19 18 19 19 17 16 13 13 13 14 15 17 17 19 20 23 26 28 29 28 26 25 25 24 25 25 25 25 27 28 29 31 32
3 6 6 4 5 3 2 6 2 4 7 9 12 16 15 16 14 12 15 17 17 15 13 12 13 12 13 14 15 17 19 22 24 27 29 28 26 24 24 23 24 25 25 25 26 28 28 30 32

GFSSGP_850_spd_291.txt.gz
Wind_Speed
7 6 3 1 3 3 4 7 6 10 1 7 7 9 11 11 3 5 10 5 8 6 4 6 9 10 9 8 7 7 6 6 5 5 4 3 3 3 1 0 1 1 2 4 4 4 7 9 10
9 8 2 2 3 1 5 8 11 4 9 13 8 12 5 3 7 16 9 8 10 11 7 8 10 9 8 7 7 7 6 5 5 4 4 4 4 4 4 4 4 5 5 6 6 7 7 8 9
11 8 2 4 4 6 5 4 2 2 13 8 4 9 6 6 10 14 9 10 12 11 9 8 9 8 7 7 6 7 7 7 6 6 6 6 7 7 7 7 7 8 9 9 10 10 10 11 10
9 6 5 2 7 8 7 6 2 5 7 5 7 8 8 4 10 12 13 12 12 10 9 9 9 8 6 5 6 6 6 6 6 7 7 8 8 9 9 10 10 10 11 12 13 13 12 13 15
9 3 2 3 8 10 8 16 3 3 9 9 6 6 8 13 10 9 14 14 10 11 10 8 7 6 4 4 5 5 5 5 6 7 7 8 9 10 11 11 12 12 13 14 14 15 15 17 17
5 4 2 7 12 10 9 17 9 4 3 2 9 9 7 17 15 11 13 13 10 10 8 6 5 4 4 4 5 4 5 5 7 8 7 8 9 10 12 13 14 14 15 15 16 16 16 18 20
3 1 5 6 10 7 6 14 9 5 2 10 6 5 13 17 17 14 10 10 10 9 8 6 5 3 3 2 3 4 4 5 6 8 8 10 12 14 14 16 16 17 19 18 18 18 19 19 20
5 2 3 4 7 9 2 3 13 6 2 5 6 7 7 23 19 14 10 8 9 9 8 6 5 4 3 4 4 4 4 4 4 4 4 5 6 8 10 11 13 18 21 21 21 21 20 22 21
13 2 4 5 7 7 3 3 3 7 8 4 3 8 12 24 21 17 12 8 7 7 6 5 6 7 7 7 7 5 5 5 4 4 5 5 5 6 8 10 12 14 15 19 23 24 24 23 25
6 5 7 5 3 1 0 5 5 2 4 5 11 17 22 20 20 20 16 11 10 9 9 6 5 4 4 3 3 3 3 2 1 1 2 5 6 8 9 11 12 13 15 16 20 23 25 28 27
5 5 9 3 2 3 2 2 2 4 3 9 16 21 21 20 20 17 12 13 14 12 12 7 5 4 4 4 3 2 2 2 2 4 7 9 11 13 14 16 17 18 19 20 19 21 26 29 30
3 9 20 8 3 1 2 5 3 7 7 5 6 20 22 22 20 19 17 16 19 15 13 10 7 6 6 5 4 3 3 4 6 9 13 17 19 21 23 24 24 24 23 24 24 24 24 26 28
11 7 11 3 5 2 3 5 6 11 17 16 12 19 23 21 19 15 17 19 18 17 15 11 9 7 6 5 5 5 7 10 12 15 18 22 25 27 29 30 30 29 28 26 27 28 27 28 27
0 5 11 9 6 3 3 5 3 8 22 22 17 22 22 20 17 20 20 19 18 15 15 14 11 9 7 7 7 8 10 13 16 19 22 25 28 31 31 31 31 31 29 29 29 30 31 32 31
2 2 6 4 6 1 3 8 13 30 13 18 25 20 21 20 20 23 23 22 19 16 18 17 15 12 10 9 9 11 13 15 18 22 25 28 29 29 31 32 32 32 32 30 31 34 34 35 34
3 2 1 4 10 5 7 10 8 15 29 18 20 20 20 19 21 21 20 18 16 20 21 20 17 15 11 11 11 13 15 18 22 25 26 27 28 30 31 32 31 31 32 32 31 31 35 36 36
2 4 7 5 10 6 7 7 4 3 23 20 19 19 20 20 21 22 22 19 20 21 23 20 18 15 12 12 13 14 17 20 24 25 27 28 30 31 32 32 31 30 30 30 29 31 31 35 36
6 4 5 6 7 4 6 14 10 14 8 17 20 19 21 23 24 23 21 20 22 23 23 19 15 13 12 12 14 16 19 21 23 24 26 28 29 29 29 29 29 28 29 29 28 29 29 32 34
1 3 3 1 2 4 9 12 15 14 19 21 23 23 26 25 23 20 19 21 23 22 19 15 12 12 12 14 16 18 20 21 22 24 26 26 26 26 27 27 27 26 27 27 27 28 29 30 28
11 4 5 0 2 2 2 13 13 9 13 26 30 28 31 28 28 26 22 23 23 21 18 14 12 12 13 15 17 19 21 22 24 25 26 27 27 26 27 29 30 29 29 28 28 27 28 29 27
7 6 4 5 3 4 3 9 6 6 17 17 29 36 32 37 36 31 25 24 21 19 17 13 12 12 13 14 16 18 20 22 24 26 27 27 28 28 28 28 28 28 28 28 27 26 25 28 28
5 3 5 4 3 4 3 5 6 4 6 6 15 30 34 31 38 34 27 25 23 20 17 13 11 13 12 14 17 19 22 24 26 29 29 29 28 29 28 28 28 28 26 27 26 25 24 25 28
5 2 4 2 2 3 2 2 8 3 7 9 10 20 25 31 38 35 28 24 23 21 17 13 12 12 13 15 17 19 21 24 26 27 28 28 28 28 27 25 24 24 24 27 27 26 26 25 27
6 5 5 4 3 1 8 7 5 5 6 3 6 18 20 26 36 31 24 23 24 22 18 14 12 11 12 14 16 18 21 23 24 25 27 29 30 29 27 25 24 23 23 24 26 27 27 27 28
1 5 2 3 2 6 4 4 9 6 6 7 11 19 21 30 33 29 28 29 27 23 18 14 12 11 12 13 16 18 19 20 21 24 27 30 31 31 29 26 25 23 22 23 23 24 26 27 29
6 4 5 7 4 4 4 6 6 5 4 9 24 26 27 30 30 29 31 29 25 23 19 15 12 11 12 12 14 16 17 18 20 23 26 29 31 31 29 27 25 25 24 23 24 25 26 26 28
6 4 3 5 1 3 4 7 8 3 3 6 16 26 28 29 30 30 29 27 25 22 18 15 13 12 11 11 13 14 15 17 19 22 25 28 29 29 27 24 23 22 22 23 23 24 26 26 28
2 1 2 2 2 4 4 5 6 7 9 8 9 17 29 30 29 26 26 25 22 20 19 17 14 12 10 11 12 12 14 16 19 22 24 27 27 26 24 23 22 22 22 22 23 24 25 26 27
2 2 1 2 4 5 2 6 6 7 13 14 11 24 29 30 30 28 26 23 21 20 19 17 14 11 10 10 10 10 12 15 17 20 23 26 27 26 24 22 22 21 21 20 22 22 24 26 28
4 6 6 4 6 4 3 7 2 5 10 12 16 27 27 26 26 25 24 21 20 18 18 16 13 11 10 10 9 9 11 13 15 19 22 25 26 24 22 21 20 20 21 20 20 21 23 26 28